Weather History for Sanford, NC

Change the Weather History Date:

Sunday, December 8, 2013

  Actual Average (KRDU) Record (KRDU)
Temperature  
Mean Temperature 40 °F 45 °F  
Max Temperature 43 °F 56 °F 78 °F (1978)
Min Temperature 35 °F 35 °F 13 °F (1977)
Degree Days  
Heating Degree Days 26 20  
Month to date heating degree days 151  
Since 1 July heating degree days 732  
Cooling Degree Days 0 0  
Month to date cooling degree days 0  
Year to date cooling degree days 1728  
Moisture  
Dew Point 33 °F    
Average Humidity 87    
Maximum Humidity 98    
Minimum Humidity 60    
Precipitation  
Precipitation 0.07 in 0.10 in 2.07 in (1920)
Month to date precipitation 0.81  
Year to date precipitation 41.08  
Snow  
Snow 0.00 in 0.10 in 0.80 in (1989)
Month to date snowfall 0.1  
Since 1 July snowfall 0.2  
Snow Depth -    
Sea Level Pressure  
Sea Level Pressure 30.39 in    
Wind  
Wind Speed 7 mph (NNE)    
Max Wind Speed 10 mph    
Max Gust Speed 16 mph    
Visibility 6 miles    
Events Rain    
T = Trace of Precipitation, MM = Missing Value Source: NWS Daily Summary

Daily Weather History Graph

Daily Weather History Graph

Search for Another Location

Airport:

Trip Planner

Search our weather history database for the weather conditions in past years. The results will help you decide how hot, cold, wet, or windy it might be!

Date:

Astronomy

Dec. 08, 2013 Rise Set
Actual Time 7:13 AM EST 5:03 PM EST
Civil Twilight 6:45 AM EST 5:31 PM EST
Nautical Twilight 6:13 AM EST 6:03 PM EST
Astronomical Twilight 5:42 AM EST 6:34 PM EST
Moon 11:42 AM EST (12/8) 11:40 PM EST (12/8)
Length of Visible Light 10h 46m
Length of Day
9h 49m
Waxing Crescent, 40% of the Moon is Illuminated
Dec 8
Waxing Crescent
Dec 9
First Quarter
Dec 17
Full
Dec 25
Last Quarter
Jan 1
New

Hourly Weather History & Observations

Time (EST) Temp. Windchill Dew Point Humidity Pressure Visibility Wind Dir Wind Speed Gust Speed Precip Events Conditions
12:15 AM 44.2 °F 39.7 °F 32.0 °F 62% 30.45 in 10.0 mi NNE 8.1 mph - N/A   Overcast
12:35 AM 44.2 °F 41.0 °F 32.0 °F 62% 30.44 in 10.0 mi NE 5.8 mph - N/A   Overcast
12:55 AM 43.9 °F 41.3 °F 32.0 °F 63% 30.43 in 10.0 mi NE 4.6 mph - N/A   Overcast
1:15 AM 43.7 °F 38.6 °F 31.3 °F 62% 30.43 in 10.0 mi NNE 9.2 mph - N/A   Overcast
1:35 AM 43.7 °F 39.7 °F 30.6 °F 60% 30.43 in 10.0 mi NE 6.9 mph - N/A   Overcast
1:55 AM 43.2 °F 39.0 °F 30.4 °F 61% 30.41 in 10.0 mi NE 6.9 mph - N/A   Overcast
2:15 AM 43.0 °F 41.3 °F 30.7 °F 62% 30.42 in 10.0 mi NNE 3.5 mph - N/A   Overcast
2:35 AM 42.8 °F 38.6 °F 30.6 °F 62% 30.42 in 10.0 mi NNE 6.9 mph - N/A   Overcast
2:55 AM 42.6 °F 37.2 °F 30.7 °F 63% 30.42 in 10.0 mi NNE 9.2 mph - N/A   Overcast
3:15 AM 42.3 °F 38.6 °F 30.2 °F 62% 30.41 in 10.0 mi NNE 5.8 mph - N/A   Overcast
3:35 AM 42.1 °F 38.4 °F 30.0 °F 62% 30.40 in 10.0 mi NE 5.8 mph - N/A   Overcast
3:55 AM 41.9 °F 37.5 °F 30.2 °F 63% 30.41 in 10.0 mi NNE 6.9 mph - N/A   Overcast
4:15 AM 41.7 °F 37.3 °F 30.6 °F 65% 30.40 in 10.0 mi NNE 6.9 mph - N/A   Overcast
4:35 AM 41.5 °F 37.1 °F 29.8 °F 63% 30.40 in 10.0 mi NNE 6.9 mph - N/A   Overcast
4:55 AM 41.2 °F 36.0 °F 30.4 °F 65% 30.41 in 10.0 mi NE 8.1 mph - N/A   Overcast
5:15 AM 41.0 °F 35.2 °F 29.7 °F 64% 30.41 in 10.0 mi NNE 9.2 mph - N/A   Overcast
5:35 AM 40.6 °F 36.7 °F 29.5 °F 64% 30.42 in 10.0 mi NE 5.8 mph - N/A   Overcast
5:55 AM 40.1 °F 34.7 °F 30.2 °F 68% 30.42 in 10.0 mi NE 8.1 mph 16.1 mph N/A Rain Light Rain
6:15 AM 39.4 °F 36.1 °F 31.5 °F 73% 30.43 in 10.0 mi NNE 4.6 mph - N/A Rain Light Rain
6:35 AM 37.9 °F 32.1 °F 32.2 °F 80% 30.42 in 10.0 mi NNE 8.1 mph 16.1 mph N/A Rain Light Rain
6:55 AM 37.6 °F 33.1 °F 32.9 °F 83% 30.44 in 10.0 mi NE 5.8 mph - N/A   Light Drizzle
7:15 AM 37.4 °F 31.4 °F 33.6 °F 86% 30.44 in 7.0 mi NE 8.1 mph - N/A   Drizzle
7:35 AM 36.9 °F 30.7 °F 33.8 °F 89% 30.45 in 5.0 mi NE 8.1 mph - N/A   Drizzle
7:55 AM 36.5 °F 31.0 °F 34.7 °F 93% 30.45 in 5.0 mi NNE 6.9 mph - N/A Rain Light Rain
8:15 AM 36.0 °F 31.1 °F 34.7 °F 95% 30.45 in 3.0 mi NE 5.8 mph - N/A   Light Drizzle
8:35 AM 35.8 °F 30.9 °F 34.7 °F 96% 30.45 in 2.0 mi NNE 5.8 mph - N/A   Drizzle
8:55 AM 35.6 °F 28.6 °F 34.3 °F 95% 30.45 in 1.8 mi NNE 9.2 mph - N/A   Drizzle
9:15 AM 35.2 °F 28.8 °F 34.3 °F 97% 30.44 in 2.0 mi NNE 8.1 mph - N/A   Drizzle
9:35 AM 35.1 °F 29.3 °F 34.0 °F 96% 30.46 in 2.0 mi NNE 6.9 mph - N/A   Drizzle
9:55 AM 35.2 °F 29.5 °F 34.2 °F 96% 30.46 in 2.5 mi NNE 6.9 mph - N/A Rain Light Rain
10:15 AM 35.1 °F 30.1 °F 34.2 °F 97% 30.46 in 1.2 mi NE 5.8 mph - 0.04 in Rain Light Rain
10:35 AM 35.1 °F 29.3 °F 34.2 °F 97% 30.44 in 2.5 mi NE 6.9 mph - 0.05 in Rain Light Rain
10:55 AM 35.4 °F 30.5 °F 34.5 °F 97% 30.42 in 5.0 mi NE 5.8 mph - 0.06 in   Light Drizzle
11:15 AM 35.6 °F 31.7 °F 34.3 °F 95% 30.42 in 5.0 mi NE 4.6 mph - N/A   Overcast
11:35 AM 35.6 °F 28.6 °F 34.5 °F 96% 30.43 in 7.0 mi North 9.2 mph - N/A   Overcast
11:55 AM 35.8 °F 28.3 °F 34.5 °F 95% 30.43 in 10.0 mi NNE 10.4 mph - N/A   Overcast
12:15 PM 35.6 °F 29.9 °F 34.0 °F 94% 30.41 in 4.0 mi NNE 6.9 mph - N/A   Overcast
12:35 PM 35.1 °F 27.9 °F 34.0 °F 96% 30.40 in 2.5 mi NNE 9.2 mph - N/A   Drizzle
12:55 PM 35.2 °F 28.1 °F 34.3 °F 97% 30.40 in 2.5 mi North 9.2 mph - N/A   Light Drizzle
1:15 PM 35.2 °F 28.8 °F 34.3 °F 97% 30.38 in 2.0 mi NNE 8.1 mph - N/A   Drizzle
1:35 PM 35.2 °F 29.5 °F 34.3 °F 97% 30.37 in 4.0 mi NNE 6.9 mph - N/A   Light Drizzle
1:55 PM 35.4 °F 28.4 °F 34.2 °F 95% 30.39 in 5.0 mi North 9.2 mph - N/A   Drizzle
2:15 PM 35.2 °F 28.8 °F 34.0 °F 95% 30.38 in 5.0 mi NNE 8.1 mph 16.1 mph 0.01 in Rain Rain
2:35 PM 35.6 °F 31.7 °F 34.3 °F 95% 30.39 in 7.0 mi NNE 4.6 mph - 0.01 in   Light Drizzle
2:55 PM 35.4 °F 29.7 °F 34.2 °F 95% 30.37 in 7.0 mi NNE 6.9 mph - 0.01 in   Overcast
3:15 PM 35.4 °F 29.7 °F 34.5 °F 97% 30.37 in 7.0 mi NE 6.9 mph - N/A   Overcast
3:35 PM 35.4 °F 29.0 °F 34.0 °F 94% 30.36 in 10.0 mi NNE 8.1 mph - N/A   Overcast
3:55 PM 35.6 °F 30.7 °F 34.2 °F 94% 30.35 in 10.0 mi NE 5.8 mph - N/A   Overcast
4:15 PM 35.6 °F 29.9 °F 34.3 °F 95% 30.36 in 10.0 mi NNE 6.9 mph - N/A   Overcast
4:35 PM 35.6 °F 29.9 °F 34.5 °F 96% 30.35 in 7.0 mi NE 6.9 mph - N/A   Overcast
4:55 PM 35.6 °F 30.7 °F 34.7 °F 97% 30.36 in 4.0 mi NNE 5.8 mph - N/A   Overcast
5:15 PM 35.6 °F 29.9 °F 34.7 °F 97% 30.35 in 4.0 mi NNE 6.9 mph - N/A   Overcast
5:35 PM 35.6 °F 29.2 °F 34.7 °F 97% 30.35 in 3.0 mi NNE 8.1 mph - N/A   Overcast
5:55 PM 35.6 °F 29.9 °F 34.7 °F 97% 30.36 in 3.0 mi NNE 6.9 mph - N/A   Overcast
6:15 PM 35.6 °F 30.7 °F 34.7 °F 97% 30.36 in 4.0 mi North 5.8 mph - N/A   Overcast
6:35 PM 35.2 °F 32.4 °F 34.7 °F 98% 30.34 in 4.0 mi NE 3.5 mph - N/A   Overcast
6:55 PM 35.4 °F 31.5 °F 34.7 °F 97% 30.34 in 2.5 mi NNE 4.6 mph - N/A   Overcast
7:15 PM 35.6 °F 30.7 °F 34.7 °F 97% 30.35 in 4.0 mi NE 5.8 mph - N/A   Overcast
7:35 PM 35.6 °F 31.7 °F 34.9 °F 97% 30.34 in 4.0 mi North 4.6 mph - N/A   Overcast
7:55 PM 35.6 °F 30.7 °F 34.9 °F 97% 30.35 in 4.0 mi North 5.8 mph - N/A   Overcast
8:15 PM 35.6 °F 30.7 °F 34.9 °F 97% 30.35 in 4.0 mi NNE 5.8 mph - N/A   Overcast
8:35 PM 35.8 °F 30.9 °F 35.2 °F 98% 30.36 in 3.0 mi North 5.8 mph - N/A   Overcast
8:55 PM 35.6 °F 32.8 °F 34.9 °F 97% 30.34 in 4.0 mi NNE 3.5 mph - N/A   Overcast
9:15 PM 35.4 °F 31.5 °F 34.9 °F 98% 30.33 in 3.0 mi NNE 4.6 mph - N/A   Overcast
9:35 PM 35.2 °F 32.4 °F 34.7 °F 98% 30.32 in 4.0 mi NE 3.5 mph - N/A   Overcast
9:55 PM 35.2 °F 32.4 °F 34.7 °F 98% 30.34 in 7.0 mi NNW 3.5 mph - N/A   Overcast
10:15 PM 35.6 °F 32.8 °F 34.9 °F 97% 30.33 in 10.0 mi North 3.5 mph - N/A   Drizzle
10:35 PM 35.4 °F 32.6 °F 34.7 °F 97% 30.33 in 7.0 mi NNE 3.5 mph - N/A   Overcast
10:55 PM 35.6 °F 31.7 °F 34.7 °F 97% 30.33 in 10.0 mi NNW 4.6 mph - N/A   Drizzle
11:15 PM 35.6 °F - 34.7 °F 97% 30.32 in 3.0 mi Calm Calm - N/A Rain Rain
11:35 PM 35.4 °F - 34.7 °F 97% 30.31 in 2.5 mi Calm Calm - N/A   Drizzle
11:55 PM 35.4 °F - 34.7 °F 97% 30.30 in 7.0 mi Calm Calm - N/A   Overcast